BREEZE-M R/B, 35874

Orbit data source: Space-Track

BREEZE-M R/B, 35874 is space debris in HEO originally from a launch on Thu, 17 Sep 2009 UTC launched from the Tyuratam Missile And Space Complex (TTMTR). Debris objects in space refer to the collection of defunct objects orbiting the Earth. Examples of debris include non-operational satellites, rocket bodies, and fragments generated from explosions, collisions, or faulty payload assembly.

Loading next visibility...
Identifier
35874, 2009-050B
Orbit
HEO
Country
Flag of CISCIS
Related business
Manufacturer
Khrunichev
Mission
Spacecraft
Bus & Motor
BRIZ, Unknown motor
Mass
~1,600 kg wet, 1,600 kg dry
Launch date (UTC)
2009-09-17 (17 years ago)
Launch vehicle
Unknown
Launch site
Tyuratam Missile And Space Complex (TTMTR)
Object type
Payload
Rocket body
Debris
Shape & HBR
Cyl, 2.0 m
Radar Cross Section
15.135 m², Large (>1 m²)

Expand to show TLE details & history
Last TLE update: 2 days ago

TLE from 2 days ago
0 BREEZE-M R/B
1 35874U 09050B   26092.33254177 -.00000159  00000-0  00000-0 0  9998
2 35874  13.4618   6.0595 4799852 165.8455 199.3648  1.93075213115913
Epoch: 2026-04-02T07:58Z
TLE epoch observation values (Epoch: 2026-04-02T07:58:51.608Z)
Latitude
-1.47123°
Longitude
49.49933°
Altitude
33,628.731 km
Speed
2.301 km/s
True Right ascension
23h 59m 35s
True Declination
-1° 28' 11"
Sunlit
Object was in daylight at epoch
Visualization orbit readout
Latitude
Unknown
Longitude
Unknown
Altitude
Unknown
Speed
Unknown
Apparent Right ascension
Unknown
Apparent Declination
Unknown
Sunlit
N/A
Visualization observer readout
Local Sidereal Time
17:06:01
Azimuth
Unknown
Elevation
Unknown
Doppler factor
Unknown
Orbital elements
Apogee altitude
33,943.999 km
Perigee altitude
7,789.645 km
Semi-major axis
27,244.959 km
Eccentricity
0.47999
Inclination
13.4618°
RAAN
6.0595°
Arg. of periapsis
165.8455°
True anomaly
187.80004°
Mean anomaly
199.3648°
Eccentric anomaly
193.12156°
Mean motion
0.48263 °/min
Orbital period
745.91 mins
BSTAR
0
Loading maneuver chart data...
Computing Atmospheric mass density...
Loading historical data...
Loading historical data...
Loading historical data...
Loading historical data...
Loading historical data...
Loading historical data...
Loading historical data...
Other satellites on launch #50 in the year 2009 (2009-09-17 UTC)

Documentation

Showing up to 5 results
|